Regional Weather Roundup
Issued by NWS Albany, NY

Home | Current Version | Previous Version | Text Only | Print | Product List | Glossary On
Versions: 1 2 3 4 5 6 7 8 9 10 11 12 13 14 15 16 17 18 19 20 21 22 23 24 25 26 27 28 29 30 31 32 33 34 35 36 37 38 39 40 41 42 43 44 45 46 47 48 49 50
324
ASUS41 KALY 180010
RWRALY

NEW YORK STATE HOURLY WEATHER ROUNDUP
NATIONAL WEATHER SERVICE ALBANY NY
800 PM EDT TUE OCT 17 2017

NOTE: "FAIR" INDICATES FEW OR NO CLOUDS BELOW 12,000 FEET WITH NO
SIGNIFICANT WEATHER AND/OR NO OBSTRUCTIONS TO VISIBILITY.

NYZ032-033-038>043-046>054-057>066-NYZ062>081-082-084-180100-
EAST


CITY           SKY/WX    TMP DP  RH WIND       PRES   REMARKS
ALBANY         CLEAR     50  34  54 S5        30.21R
GLENS FALLS    CLEAR     48  32  53 S7        30.17S
POUGHKEEPSIE   CLEAR     48  36  63 CALM      30.23S
NEWBURGH       CLEAR     50  37  62 SW6       30.25R
MONTGOMERY     CLEAR     44  37  76 SW5       30.23S
WHITE PLAINS   CLEAR     48  37  65 S3        30.25S
ISLIP          CLEAR     51  40  65 SW8       30.28S
NEW YORK CITY  CLEAR     56  39  53 S9        30.27R
$$

NYZ005>009-017-018-044>046-055-056-180100-
CENTRAL


CITY           SKY/WX    TMP DP  RH WIND       PRES   REMARKS
FULTON         CLEAR     52  41  66 S6        30.12R
SYRACUSE       PTCLDY    53  38  56 S8        30.13R
ROME           CLEAR     50  38  63 E7        30.16S
ELMIRA         CLEAR     55  38  52 SW6       30.18R
BINGHAMTON     CLEAR     49  33  54 SW9       30.19R
MONTICELLO     CLEAR     47  30  51 W3        30.24S
$$

NYZ026>034-041>043-087-180100-
NORTH


CITY           SKY/WX    TMP DP  RH WIND       PRES   REMARKS
WATERTOWN      CLEAR     54  41  61 S8        30.09R
FORT DRUM      NOT AVBL
OGDENSBURG     FAIR      55  43  62 S9G20     30.05S
MASSENA        CLEAR     56  43  61 SW15G23   30.04S
SARANAC LAKE   CLEAR     47  35  63 SW12      30.07R
PLATTSBURGH    CLEAR     51  34  52 S7G17     30.07R
$$

NYZ001>004-010>016-019>021-085-180100-
WEST


CITY           SKY/WX    TMP DP  RH WIND       PRES   REMARKS
NIAGARA FALLS  CLEAR     62  44  51 SW16      30.12R
BUFFALO        PTCLDY    61  46  57 SW15G24   30.14R
DUNKIRK        CLEAR     55  41  59 SW9       30.16R
JAMESTOWN      CLEAR     52  38  58 S9        30.20R
WELLSVILLE     CLEAR     53  35  50 SW8       30.20S
ROCHESTER      CLEAR     56  41  57 SW9       30.12R
$$

             KEY
       WCI = WIND CHILL INDEX
       VSB = VISIBILITY
       HX  = HEAT INDEX
$$




USA.gov is the U.S. government's official web portal to all federal, state and local government web resources and services.